Location: *
(34.0486°S, 61.7880°E)
Time: 12:00:50
(UTC+00:00)

Helios 1A Rocket - Pass Details

Date: 01 April 2020
Orbit: 564 x 586 km, 98.3° (Epoch: 04 June)

Event Time Altitude Azimuth Distance (km) Brightness Sun altitude
Rises 14:19:14 0° 173° (S) 2,849 6.4 -7.4°
Reaches altitude 10° 14:21:26 10° 177° (S) 1,940 5.6 -7.9°
Maximum altitude 14:25:34 56° 255° (WSW) 707 3.8 -8.7°
Drops below altitude 10° 14:29:38 10° 333° (NNW) 1,910 5.9 -9.6°
Sets 14:31:47 0° 337° (NNW) 2,800 6.7 -10.0°
